Regional Weather Roundup
Issued by NWS Green Bay, WI

Home | Current Version | Previous Version | Graphics & Text | Print | Product List | Glossary Off
Versions: 1 2 3 4 5 6 7 8 9 10 11 12 13 14 15 16 17 18 19 20 21 22 23 24 25 26 27 28 29 30 31 32 33 34 35 36 37 38 39 40 41 42 43 44 45 46 47 48 49 50

000
ASUS43 KGRB 010659
RWRGRB

NORTH-CENTRAL AND NORTHEAST WISCONSIN REGIONAL WEATHER ROUNDUP
NATIONAL WEATHER SERVICE GREEN BAY WI
200 AM CDT FRI AUG 01 2014

WIZ005-009-010>012-018-019-010800-
NORTH CENTRAL WISCONSIN

CITY           SKY/WX    TMP DP  RH WIND       PRES   REMARKS
IRONWOOD       NOT AVBL
MANITOWISH WTR NOT AVBL
ARBOR VITAE    NOT AVBL
EAGLE RIVER    NOT AVBL
LAND O LAKES   NOT AVBL
RHINELANDER    MOCLDY    51  50  96 CALM      30.03S FOG
PHILLIPS       CLEAR     56  55  99 CALM      30.02S
ANTIGO         NOT AVBL
TOMAHAWK       NOT AVBL
MERRILL        NOT AVBL
$$

WIZ013-073-010800-
NORTHEAST WISCONSIN

CITY           SKY/WX    TMP DP  RH WIND       PRES   REMARKS
IRON MOUNTAIN  CLOUDY    54  52  93 CALM      30.00S
MARINETTE      PTCLDY    57  55  94 CALM      29.98S
$$

WIZ017-030-035>037-045-010800-
CENTRAL WISCONSIN

CITY           SKY/WX    TMP DP  RH WIND       PRES   REMARKS
MEDFORD        NOT AVBL
WAUSAU         CLEAR     61  59  93 CALM      30.01R
MOSINEE        PTCLDY    55  55 100 CALM      30.02F FOG
MARSHFIELD     MOCLDY    64  59  83 W7        30.01F
WISC RAPIDS    PTCLDY    60  58  92 CALM      30.02F
STEVENS POINT  NOT AVBL
WAUPACA        CLEAR     61  58  91 CALM      30.01S
SHAWANO        PTCLDY    60  59  94 CALM      30.01S FOG
CLINTONVILLE   CLEAR     55  55 100 CALM      30.01S FOG
$$

WIZ038-039-048-051-010800-
FOX VALLEY

CITY           SKY/WX    TMP DP  RH WIND       PRES   REMARKS
NWS GREEN BAY  PTCLDY    60  58  92 W3        30.00F
APPLETON       NOT AVBL
OSHKOSH        CLEAR     64  60  87 W3        30.00F
FOND DU LAC    CLEAR     61  58  90 SW5       30.01F
$$

WIZ022-050-052-010800-
EAST CENTRAL WISCONSIN

CITY           SKY/WX    TMP DP  RH WIND       PRES   REMARKS
STURGEON BAY   CLEAR     59  55  88 CALM      30.00S
MANITOWOC      NOT AVBL
SHEBOYGAN      CLEAR     60  58  92 CALM      30.01S
$$

LMZ563-521-522-541>543-010800-
LAKESHORE

STATION/POSITION TIME  TEMP    WIND        PRES    VSBY  WAVE
                       AIR SEA DIR/SP/G                  HT/PER
                 (UTC) (F)     (DEG/KT/KT) (MB)    (MI)  (FT/S)
SHEBOYGAN LKSHOR 0600   70     260/  8/  9 1015.9F
KEWAUNEE LKSHORE 0600   62     300/  5/  6 1014.9R
ALGOMA MARINA    0600          340/  7/  9   N/A
NORTHPORT PIER   0600   62      CALM  /  2 1015.6R
N MID LAKE BUOY  0600   59 54  220/  4/  8 1015.1R         1/ 4
SISTER BAY LKSHO 0600   65      90/  9/ 11   N/A
CHAMBERS ISLAND  0600   65     100/  4/  5 1015.6R
MENOMINEE LKSHOR 0600   67     140/  1/  2 1015.9F
$$



USA.gov is the U.S. government's official web portal to all federal, state and local government web resources and services.